SAS506 EGLC-EKCH

Flight info

Callsign SAS506
Flight time N/A
Altitude 37000
Route ODUKU M84 CLN P44 SOMVA DCT MAVAS DCT ANDIK DCT BEDUM N873 JUIST DCT FUFNA DCT DOSUR P729 TUDLO
Aircraft A319/M-SDE3FGHIRWY/LB1

Departure

Time 2026-05-01 14:33
Airport London City Airport (EGLC)

Arrival

Time N/A
Airport Copenhagen Kastrup Airport (EKCH)
Time Latitude Longitude Altitude Speed Heading
2026-05-01 14:08 51.50407 0.05135 26 ft 0 kts 182°
2026-05-01 14:26 51.50436 0.05142 29 ft 4 kts 211°
2026-05-01 14:26 51.50450 0.05169 30 ft 2 kts 274°
2026-05-01 14:27 51.50450 0.05171 30 ft 0 kts 274°
2026-05-01 14:29 51.50450 0.05164 30 ft 2 kts 274°
2026-05-01 14:30 51.50465 0.04897 25 ft 11 kts 271°
2026-05-01 14:30 51.50469 0.04759 25 ft 14 kts 273°
2026-05-01 14:30 51.50475 0.04594 25 ft 16 kts 273°
2026-05-01 14:31 51.50554 0.04531 26 ft 7 kts 92°
2026-05-01 14:31 51.50554 0.04534 25 ft 0 kts 92°
2026-05-01 14:32 51.50550 0.04664 26 ft 45 kts 92°
2026-05-01 14:32 51.50516 0.05674 28 ft 133 kts 93°
2026-05-01 14:33 51.50452 0.07309 572 ft 148 kts 100°
2026-05-01 14:33 51.50389 0.08946 1415 ft 146 kts 102°
2026-05-01 14:33 51.50418 0.10618 2057 ft 161 kts 85°
2026-05-01 14:33 51.50875 0.12400 2375 ft 188 kts 58°
2026-05-01 14:34 51.51911 0.13904 2626 ft 218 kts 28°
2026-05-01 14:34 51.53374 0.14903 2988 ft 236 kts 24°
2026-05-01 14:34 51.54856 0.16076 2996 ft 238 kts 38°
2026-05-01 14:34 51.55961 0.18040 3013 ft 248 kts 64°
2026-05-01 14:35 51.56766 0.20656 3011 ft 267 kts 67°
2026-05-01 14:35 51.57581 0.23361 3010 ft 270 kts 66°
2026-05-01 14:35 51.58402 0.26074 3013 ft 271 kts 67°
2026-05-01 14:35 51.59228 0.28800 2998 ft 270 kts 65°
2026-05-01 14:36 51.60057 0.31524 3278 ft 280 kts 66°
2026-05-01 14:36 51.60904 0.34316 4362 ft 277 kts 66°
2026-05-01 14:36 51.61751 0.37120 5433 ft 281 kts 67°
2026-05-01 14:36 51.62609 0.39973 6475 ft 285 kts 67°
2026-05-01 14:37 51.63479 0.42870 7421 ft 289 kts 67°
2026-05-01 14:37 51.64364 0.45813 8347 ft 293 kts 67°
2026-05-01 14:37 51.65259 0.48786 9308 ft 297 kts 67°
2026-05-01 14:37 51.66164 0.51786 10235 ft 299 kts 68°
2026-05-01 14:38 51.67099 0.54896 10703 ft 320 kts 68°
2026-05-01 14:38 51.68095 0.58229 11142 ft 337 kts 68°
2026-05-01 14:38 51.69121 0.61663 11858 ft 343 kts 68°
2026-05-01 14:38 51.70165 0.65157 12627 ft 348 kts 68°
2026-05-01 14:39 51.71222 0.68697 13404 ft 353 kts 68°
2026-05-01 14:39 51.72291 0.72278 14154 ft 357 kts 68°
2026-05-01 14:39 51.73373 0.75905 14818 ft 361 kts 68°
2026-05-01 14:39 51.74466 0.79577 15485 ft 365 kts 68°
2026-05-01 14:40 51.75568 0.83282 16163 ft 368 kts 68°
2026-05-01 14:40 51.76683 0.87034 16830 ft 372 kts 69°
2026-05-01 14:40 51.77806 0.90824 17490 ft 376 kts 69°
2026-05-01 14:40 51.78938 0.94662 18165 ft 380 kts 69°
2026-05-01 14:41 51.80079 0.98537 18774 ft 384 kts 69°
2026-05-01 14:41 51.81232 1.02449 19356 ft 387 kts 69°
2026-05-01 14:41 51.82393 1.06392 19957 ft 390 kts 69°
2026-05-01 14:41 51.83563 1.10379 20558 ft 393 kts 69°
2026-05-01 14:42 51.84735 1.14384 21153 ft 396 kts 69°
2026-05-01 14:42 51.85891 1.18441 21740 ft 399 kts 70°
2026-05-01 14:42 51.87016 1.22559 22320 ft 401 kts 71°
2026-05-01 14:42 51.87752 1.25317 22700 ft 403 kts 71°
2026-05-01 14:43 51.89216 1.30864 23456 ft 407 kts 71°
2026-05-01 14:43 51.90335 1.35100 23974 ft 410 kts 71°
2026-05-01 14:43 51.91466 1.39359 24433 ft 413 kts 71°
2026-05-01 14:43 51.92607 1.43638 24887 ft 416 kts 71°
2026-05-01 14:44 51.93386 1.46550 25188 ft 418 kts 71°
2026-05-01 14:44 51.95706 1.55241 26078 ft 423 kts 71°
2026-05-01 14:44 51.96872 1.59629 26509 ft 425 kts 71°
2026-05-01 14:45 51.98043 1.64051 26945 ft 428 kts 71°
2026-05-01 14:45 52.00673 1.72804 27786 ft 436 kts 65°
2026-05-01 14:45 52.02126 1.77145 28217 ft 439 kts 65°
2026-05-01 14:46 52.03585 1.81516 28646 ft 441 kts 65°
2026-05-01 14:46 52.06515 1.90342 29487 ft 447 kts 65°
2026-05-01 14:46 52.07993 1.94799 29893 ft 449 kts 65°
2026-05-01 14:47 52.09482 1.99285 30281 ft 452 kts 65°
2026-05-01 14:47 52.10957 2.03745 30609 ft 455 kts 65°
2026-05-01 14:47 52.12456 2.08296 30945 ft 457 kts 65°
2026-05-01 14:48 52.15467 2.17449 31608 ft 461 kts 65°
2026-05-01 14:48 52.16979 2.22061 31926 ft 463 kts 65°
2026-05-01 14:48 52.19997 2.31296 32855 ft 460 kts 64°
2026-05-01 14:49 52.22991 2.40466 33802 ft 457 kts 64°
2026-05-01 14:49 52.25955 2.49614 34670 ft 455 kts 64°
2026-05-01 14:50 52.28405 2.57208 35324 ft 453 kts 64°
2026-05-01 14:50 52.31392 2.68125 36162 ft 448 kts 76°
2026-05-01 14:51 52.32246 2.73024 36505 ft 448 kts 76°
2026-05-01 14:51 52.33966 2.82801 37149 ft 448 kts 76°
2026-05-01 14:52 52.36536 2.97433 37223 ft 445 kts 76°
2026-05-01 14:53 52.39064 3.12046 37227 ft 444 kts 76°
2026-05-01 14:53 52.40739 3.21782 37225 ft 444 kts 76°
2026-05-01 14:54 52.42403 3.31497 37224 ft 444 kts 76°
2026-05-01 14:54 52.44074 3.41269 37229 ft 444 kts 76°
2026-05-01 14:55 52.45734 3.51010 37229 ft 444 kts 76°
2026-05-01 14:55 52.47370 3.60757 37220 ft 443 kts 76°
2026-05-01 14:56 52.48992 3.70516 37218 ft 443 kts 76°
2026-05-01 14:56 52.50604 3.80219 37219 ft 443 kts 76°
2026-05-01 14:57 52.52226 3.89986 37217 ft 443 kts 76°
2026-05-01 14:57 52.54638 4.04643 37221 ft 443 kts 76°
2026-05-01 14:58 52.56233 4.14411 37224 ft 443 kts 76°
2026-05-01 14:58 52.57817 4.24198 37220 ft 443 kts 76°
2026-05-01 14:59 52.59395 4.33998 37221 ft 443 kts 76°
2026-05-01 14:59 52.60970 4.43804 37218 ft 443 kts 76°
2026-05-01 15:00 52.63308 4.58512 37223 ft 443 kts 76°
2026-05-01 15:01 52.64859 4.68322 37224 ft 443 kts 76°
2026-05-01 15:01 52.66402 4.78143 37226 ft 443 kts 76°
2026-05-01 15:02 52.67934 4.87967 37221 ft 443 kts 76°
2026-05-01 15:02 52.69456 4.97804 37212 ft 443 kts 77°
2026-05-01 15:03 52.71135 5.07579 37214 ft 445 kts 66°
2026-05-01 15:03 52.72742 5.11938 37215 ft 445 kts 51°
2026-05-01 15:03 52.74729 5.15866 37213 ft 445 kts 50°
2026-05-01 15:04 52.78735 5.23667 37216 ft 446 kts 50°
2026-05-01 15:04 52.83032 5.31062 37204 ft 446 kts 42°
2026-05-01 15:05 52.87545 5.38136 37213 ft 447 kts 45°
2026-05-01 15:05 52.91661 5.45751 37227 ft 447 kts 50°
2026-05-01 15:06 52.95553 5.53787 37238 ft 447 kts 51°
2026-05-01 15:06 52.99441 5.61832 37236 ft 447 kts 50°
2026-05-01 15:07 53.03400 5.69782 37236 ft 447 kts 50°
2026-05-01 15:07 53.07383 5.77714 37237 ft 447 kts 50°
2026-05-01 15:08 53.11352 5.85657 37240 ft 447 kts 50°
2026-05-01 15:08 53.15307 5.93636 37239 ft 446 kts 50°
2026-05-01 15:09 53.19248 6.01626 37247 ft 446 kts 50°
2026-05-01 15:09 53.23179 6.09626 37248 ft 445 kts 50°
2026-05-01 15:10 53.27104 6.17628 37252 ft 445 kts 50°
2026-05-01 15:10 53.32981 6.29652 37252 ft 445 kts 50°
2026-05-01 15:11 53.38840 6.41696 37258 ft 444 kts 50°
2026-05-01 15:12 53.42730 6.49733 37261 ft 444 kts 50°
2026-05-01 15:12 53.48530 6.61754 37268 ft 443 kts 50°
2026-05-01 15:14 53.58186 6.81903 37278 ft 442 kts 50°
2026-05-01 15:14 53.63950 6.94005 37283 ft 441 kts 50°
2026-05-01 15:15 53.71603 7.10164 37276 ft 440 kts 51°
2026-05-01 15:16 53.79216 7.26360 37280 ft 440 kts 51°
2026-05-01 15:18 53.88703 7.46649 37283 ft 439 kts 51°
2026-05-01 15:19 53.96252 7.62946 37290 ft 439 kts 51°
2026-05-01 15:19 54.01905 7.75216 37291 ft 439 kts 51°
2026-05-01 15:20 54.07539 7.87504 37303 ft 439 kts 51°
2026-05-01 15:21 54.11286 7.95707 37306 ft 438 kts 51°
2026-05-01 15:21 54.15022 8.03909 37306 ft 438 kts 51°
2026-05-01 15:22 54.20588 8.16199 37321 ft 438 kts 51°
2026-05-01 15:22 54.24309 8.24427 37321 ft 437 kts 51°
2026-05-01 15:23 54.28021 8.32664 37323 ft 437 kts 51°
2026-05-01 15:23 54.31725 8.40923 37323 ft 437 kts 52°
2026-05-01 15:24 54.35420 8.49194 37320 ft 437 kts 52°
2026-05-01 15:24 54.39117 8.57485 37325 ft 437 kts 52°
2026-05-01 15:25 54.42802 8.65783 37318 ft 437 kts 52°
2026-05-01 15:25 54.46462 8.74037 37318 ft 437 kts 52°
2026-05-01 15:26 54.50138 8.82363 37320 ft 437 kts 52°
2026-05-01 15:26 54.53808 8.90710 37307 ft 437 kts 52°
2026-05-01 15:27 54.57474 8.99074 37314 ft 437 kts 52°
2026-05-01 15:28 54.62961 9.11658 37316 ft 438 kts 52°
2026-05-01 15:28 54.66006 9.18659 37315 ft 438 kts 52°
2026-05-01 15:29 54.71476 9.31296 37320 ft 438 kts 52°
2026-05-01 15:30 54.78756 9.48226 36942 ft 444 kts 52°
2026-05-01 15:31 54.86175 9.65567 35791 ft 449 kts 53°
2026-05-01 15:31 54.89886 9.74307 35198 ft 450 kts 53°
2026-05-01 15:32 54.93578 9.83021 34619 ft 450 kts 54°
2026-05-01 15:32 54.97289 9.91813 34002 ft 451 kts 54°
2026-05-01 15:33 55.02837 10.05123 32914 ft 454 kts 58°
2026-05-01 15:34 55.07155 10.19640 31507 ft 445 kts 64°